Tracking 20710 objects as of 30-May-2020
HD Live streaming from Space Station
objects crossing your sky now

SL-14 DEB

Track SL-14 DEB now!
10-day predictions


NORAD ID: 35530
Int'l Code: 1991-068AX
Perigee: 1,473.6 km
Apogee: 1,518.4 km
Inclination: 82.7 °
Period: 115.7 minutes
Semi major axis: 7867 km
RCS: 0.0142 m2 (small)
Launch date: September 28, 1991
Source: Commonwealth of Independent States (former USSR) (CIS)
Launch site: PLESETSK MISSILE AND SPACE COMPLEX (PKMTR)

Note: This is SATELLITE DEBRIS
aabbcc
Your satellite tracking list
Your tracking list is empty




NASA's NSSDC Master Catalog

Two Line Element Set (TLE):
1 35530U 91068AX  20150.90945831  .00000029  00000-0  13260-3 0  9993
2 35530  82.7083 209.4991 0028468  36.8597 136.9668 12.44188619738816
Source of the keplerian elements: AFSPC